CZ-6A DEB

Satellite information

Favourite Embed

Satellite Type and Status

DEBRISIN ORBIT

Key statistics

Satellite CZ-6A DEB at a glance.

Uptime

1129

Days in orbit

Revolutions

≈ 14.6

Per day

Orbit

SSO

Sun Synchronous Orbit

Inclination

98.7

Latest

Satellite identification and parameters

Extended collection of information and parameters for CZ-6A DEB.

Object identification

Identified? True

Debris? True

Object name: CZ-6A DEB

International designator: 2022-151AGR

Object number (NORAD): 56665

Object ID (CCSDS): 56665

Country: PEOPLES REPUBLIC OF CHINA (PRC)

Current information (Y/N): Y

RCS size: SMALL

Orbital parameters

Period: 98.742 minutes

Inclination: 98.7148 deg

SMA: 7076.663 km

Apoapsis: 788.299 km

Periapsis: 608.756 km

RAAN: 55.0687 deg

Eccentricy: 0.01268554

Argument of periapsis: 121.1137 deg

Mean anomaly: 240.2579 deg

Mean motion: 14.58344131 rev/day

Mean motion (dot): 0.00004893 rev/day2

B* drag term: 0.00095606829 1/REarth

Two-line elements (TLE)

Creation date: Dec. 9, 2025, 1:02 p.m.

Reference frame: TEME

Reference center: EARTH

Epoch: Dec. 9, 2025, 4:12 a.m. UTC

TLE line 0: 0 CZ-6A DEB

TLE line 1: 1 56665U 22151AGR 25343.17501527 .00004893 00000-0 95607-3 0 9998

TLE line 2: 2 56665 98.7148 55.0687 0126855 121.1137 240.2579 14.58344131144597

Live tracking on map

Real-time ground track for satellite CZ-6A DEB.

In-orbit conjunctions

A list of the most updated potential collisions computed for object CZ-6A DEB.

Target Orbit TCA Probability of collision Miss distance Type
SL-14 DEB LEO 2025-08-21 14:35:25 0.0001227613 144.0 (m) DEBRIS
SL-3 R/B LEO 2024-09-03 01:14:03 0.0001314896 128.0 (m) ROCKET BODY

Associated space launch

Chinese satellite reported for atmospheric/ocean/environmental/spatial parameter research purposes, details TBD.

CZ-6A DEB was lifted into orbit during the mission ‘Long March 6A | Yunhai 3’, on board a Long March 6A space rocket.

The launch took place on Nov. 11, 2022, 10:52 p.m. from Launch Complex 9A.

For more information about the launch, click the button.

Launch to space Long March 6A | Yunhai 3
Long March 6A | Yunhai 3

Agency: N/A

Status: Launch Successful

Launch date: Nov. 11, 2022, 10:52 p.m. UTC

Rocket: Long March 6A

Launch pad: Launch Complex 9A

Location: Taiyuan Satellite Launch Center, People's Republic of China

...

Latest news about this satellite

There are no fresh news available about this satellite. Check back as we update our databases every day.


Newsletter sign-up

Weekly statistics, charts and insights to help you stay on top of the space industry.